Location: Moscow Flats
(36.3264°N, 99.1995°W)
Time: 00:17:28
(UTC+00:00)

Daily predictions for brighter satellites

Satellite Brightness Start Highest point End
(mag) Time Altitude Azimuth Time Altitude Azimuth Time Altitude Azimuth
Cosmos 1025 Rocket 3.5 00:00:36 10° N 00:04:38 37° E 00:08:37 10° SSE
MOS 1 Rocket 4.0 00:02:56 10° SE 00:06:30 26° ENE 00:10:04 10° NNE
Cosmos 1606 1.7 00:04:24 10° S 00:07:06 88° E 00:09:49 10° N
IRS-P3 4.4 00:02:39 10° SE 00:07:42 46° ENE 00:12:46 10° N
SJ-12 3.7 00:05:47 10° SSE 00:09:30 58° ENE 00:13:16 10° N
ARIANE 6 FM1 Upper Stage 3.8 00:06:51 10° WSW 00:10:40 39° NW 00:14:25 10° NNE
Cosmos 2016 Rocket 4.1 00:06:07 10° SSE 00:12:10 57° E 00:18:18 10° NNE
CORIOLIS 4.2 00:07:01 10° SSE 00:12:25 87° WSW 00:17:49 10° NNW
SAR-Lupe-4 3.6 00:09:14 10° SSE 00:12:48 87° WSW 00:16:24 10° NNW
IGS 5A 4.4 00:09:17 10° S 00:13:07 49° W 00:17:00 10° NNW
Cosmos 909 Rocket 4.2 00:08:10 10° NNW 00:14:17 51° ENE 00:20:44 10° SE
USA 215 4.3 00:10:10 10° SSE 00:16:28 50° SW 00:22:49 10° NW
Cosmos 1378 Rocket 3.9 00:13:06 10° NNW 00:17:24 70° W 00:21:42 10° S
CZ-2D R/B 4.4 00:14:51 10° SE 00:18:10 26° ENE 00:21:33 10° NNE
Cosmos 1818 4.4 00:14:20 10° NW 00:19:39 56° WSW 00:24:55 10° SSE
Cosmos 1782 Rocket 4.2 00:17:22 10° SSE 00:21:20 34° E 00:25:21 10° NNE
SPOT 1/Viking Rocket 4.2 00:16:48 10° SE 00:21:21 33° ENE 00:25:56 10° N
Tiangong -0.9 00:19:26 10° WNW 00:22:18 30° N 00:24:28 15° NE
ARIANE 5 R/B 2.5 00:18:23 10° SSE 00:23:23 85° WSW 00:28:23 10° NNW
SWARM A 4.1 00:25:20 10° N 00:28:40 82° E 00:31:58 10° S
Cosmos 1844 Rocket 4.2 00:23:56 10° SW 00:28:59 36° WNW 00:34:06 10° N
Cosmos 2061 Rocket 4.2 00:25:33 10° SSE 00:31:42 53° E 00:37:48 10° NNE
Cosmos 1140 Rocket 4.2 00:28:10 10° SSE 00:32:40 30° E 00:36:53 11° NE
SKYMED 2 3.5 00:29:40 10° NNE 00:33:59 65° E 00:38:17 10° S
COSMO-SKYMED 1 2.7 00:31:02 10° NNE 00:34:59 44° E 00:38:55 10° S
Geosat 4.5 00:31:17 10° SE 00:35:51 38° ENE 00:40:26 10° N
Cosmos 1908 Rocket 3.8 00:32:43 10° SSW 00:37:04 71° W 00:41:29 10° N
SMAP 4.3 00:33:33 10° S 00:37:59 46° W 00:42:28 10° NNW
Cosmos 1300 Rocket 3.5 00:37:47 10° S 00:42:09 69° E 00:46:32 10° NNE
Cosmos 1833 Rocket 3.8 00:39:16 10° N 00:43:31 21° ENE 00:44:22 21° ENE
Delta 2 Rocket 3.2 00:42:45 10° WSW 00:46:45 72° S 00:48:35 29° E
Cosmos 1975 Rocket 3.8 00:44:25 10° NNE 00:48:10 28° ENE 00:50:52 16° SE
Cosmos 1441 Rocket 2.9 00:46:15 10° N 00:49:30 51° E 00:52:45 10° SSE
Cosmos 2221 Rocket 3.9 00:45:12 10° NNW 00:49:41 70° W 00:54:06 10° S
VEP-3 4.4 00:42:35 10° WSW 00:50:38 30° SSW 00:55:32 10° SE
Cosmos 1603 4.3 00:48:24 10° NNW 00:53:59 60° WSW 00:59:30 10° S
Aureole 2 4.2 00:54:01 10° SSW 00:57:15 78° ESE 00:59:04 26° NNE
Spot 4 Rocket 3.9 00:58:16 10° SSE 01:03:20 76° ENE 01:08:26 10° N
Cosmos 2084 Rocket 3.5 00:59:27 10° SSW 01:03:29 52° ESE 01:04:21 43° ENE
SJ-7 4.0 01:06:07 10° SSE 01:09:49 89° ENE 01:13:31 10° NNW
PSLV R/B 3.3 01:09:31 10° SSE 01:13:36 85° ENE 01:17:41 10° N
Cosmos 407 Rocket 4.0 01:09:22 10° SSE 01:13:36 36° ESE 01:13:36 36° ESE
Cosmos 1023 Rocket 4.4 01:10:26 10° SSW 01:15:38 89° ESE 01:19:44 17° NNE
Helios 1A Rocket 4.0 01:13:26 10° N 01:16:33 34° WNW 01:19:39 10° SW
NOSS 3-4 (A) 3.9 01:11:58 10° NNW 01:19:08 79° ENE 01:27:29 10° SE
NOSS 3-4 (C) 3.9 01:12:03 10° NNW 01:19:13 78° ENE 01:27:32 10° SE
Cosmos 1464 Rocket 4.3 01:14:25 10° SSE 01:28:40 - NNE 01:20:09 40° E
NOAA 6 3.9 01:17:48 10° SSE 01:22:55 72° ENE 01:28:04 10° N
Resurs 1-3 3.6 01:20:11 10° S 01:24:28 78° W 01:28:47 10° NNW
Cosmos 1269 Rocket 4.2 01:20:22 10° SSW 01:25:35 69° WNW 01:30:07 14° N
ATLAS CENTAUR R/B 3.4 01:23:35 10° W 01:26:11 19° NW 01:27:55 14° NNW
Cosmos 2278 Rocket 3.2 01:21:54 10° S 01:25:11 29° SE 01:25:11 29° SE
YAOGAN 1 3.4 01:32:41 10° S 01:36:48 49° W 01:40:57 10° NNW
SL-12 R/B(2) 4.0 01:32:06 10° SSW 01:39:39 80° ESE 01:44:53 28° NE
CZ-4C R/B 4.5 01:37:51 10° WNW 01:39:44 12° NW 01:41:47 10° N
USA 281 3.2 01:39:32 54° ENE 01:39:52 54° ENE 01:46:15 10° NNW
OAO 2 Rocket 4.4 01:36:48 10° SW 01:40:43 33° S 01:40:43 33° S
Cosmos 1072 Rocket 4.3 01:42:17 10° S 01:48:31 76° E 01:49:40 59° NNE
Tiangong 1.2 01:56:29 10° WNW 01:56:42 12° WNW 01:56:42 12° WNW
Cosmos 1943 Rocket 3.1 01:58:33 10° SSW 02:02:00 39° SSW 02:02:00 39° SSW
Timation 2 Rocket 4.1 02:02:29 10° SSW 02:09:17 81° WNW 02:09:56 73° N
Cosmos 1833 Rocket 3.8 02:22:15 10° NNW 02:26:06 39° WNW 02:26:06 39° WNW
USA 267 4.2 10:25:20 10° NNE 10:29:41 35° N 10:29:41 35° N
Gbstr 26 Del rocket 4.5 10:47:30 35° NNE 10:47:30 35° NNE 10:51:03 10° NE
Cosmos 1153 Rocket 4.4 10:42:18 10° N 10:48:31 82° E 10:54:47 10° S
ACS3 Solar Sail 3.8 10:43:38 10° N 10:44:27 14° N 10:44:27 14° N
Cosmos 1340 Rocket 4.3 11:00:18 27° SSE 11:00:18 27° SSE 11:02:09 10° SSE
Cosmos 1943 Rocket 4.2 10:54:21 10° N 10:58:47 24° ENE 11:03:10 10° ESE
PAYLOAD A 3.9 10:54:24 10° N 10:59:48 81° WNW 11:00:41 62° SSW
CZ-2C R/B 3.7 10:55:53 10° N 10:58:22 29° N 10:58:22 29° N
Meteor 2-14 Rocket 4.3 10:58:17 10° SSW 11:04:22 73° W 11:10:28 10° N
ARGOS 4.2 10:59:10 10° N 11:02:06 31° NNW 11:02:06 31° NNW
USA 234 3.6 10:58:04 10° ESE 11:04:31 62° NE 11:08:18 26° NNW
SL-16 R/B 4.1 11:08:20 10° SSW 11:10:12 19° SSW 11:10:12 19° SSW
Cosmos 1809 Rocket 4.4 11:10:50 10° SSW 11:16:47 54° W 11:22:44 10° N
Cosmos 2219 Rocket 4.1 11:23:45 14° NNW 11:23:45 14° NNW 11:24:58 10° N
Intercosmos 25 Rocket 4.3 11:22:45 36° SW 11:24:26 51° WNW 11:31:35 10° N
IRS-1D 3.7 11:20:35 10° NNE 11:25:31 68° ESE 11:30:24 10° S
USA 276 4.0 11:27:18 19° NNE 11:27:18 19° NNE 11:29:17 10° E
UNK 4.2 11:24:17 10° S 11:27:44 38° SW 11:27:44 38° SW
Cosmos 1328 3.5 11:29:36 63° NW 11:29:36 63° NW 11:32:53 10° N
COSMOS 2428 3.0 11:29:57 34° WSW 11:31:41 44° WNW 11:37:07 10° N
Cosmos 2100 Rocket 3.9 11:28:22 10° NNW 11:34:28 68° W 11:40:34 10° S
NOSS 0 Rocket 3.8 11:30:13 10° SSW 11:36:18 67° WNW 11:42:26 10° NNE
NOSS 3-1 (C) 4.0 11:36:52 25° NW 11:36:52 25° NW 11:40:59 10° N
Cosmos 2322 4.3 11:38:06 31° WNW 11:38:58 33° WNW 11:44:04 10° N
Cosmos 1703 Rocket 3.5 11:37:49 10° SSW 11:42:05 61° W 11:46:25 10° N
Cosmos 407 Rocket 4.4 11:38:35 10° N 11:43:31 48° ENE 11:48:25 10° SE
Cosmos 1023 Rocket 4.3 11:38:39 10° NNW 11:43:42 74° WSW 11:48:43 10° S
Cosmos 921 Rocket 3.6 11:43:43 33° W 11:44:24 35° W 11:48:25 10° SSW
Cosmos 1939 Rocket 3.9 11:41:03 10° N 11:43:13 26° NW 11:43:13 26° NW
BlueWalker 3 3.0 11:42:58 20° NNW 11:44:57 36° NE 11:48:19 10° ESE
Helios 1A Rocket 3.3 11:42:02 10° SSE 11:45:18 49° ENE 11:48:36 10° N
FengYun 1-2 T 4.3 11:44:03 10° N 11:49:27 55° WNW 11:54:54 10° SSW
Cosmos 1980 3.6 11:45:06 10° SSW 11:50:42 71° WNW 11:56:22 10° NNE
